Location: Baia Mare
(47.6567°N, 23.5850°E)
Time: 18:08:09
(UTC+03:00)

ISS - Pass Details

Date: 31 October 2018
Orbit: 403 x 408 km, 51.6° (Epoch: 17 October)

Event Time Altitude Azimuth Distance (km) Brightness Sun altitude
Exits shadow 04:27:26 18° 109° (ESE) 1,078 -1.1 -27.4°
Drops below altitude 10° 04:28:50 10° 88° (E) 1,462 0.0 -27.2°
Sets 04:31:13 0° 72° (ENE) 2,326 1.3 -26.8°
